Location: Unspecified
(0.0000°N, 0.0000°E)
Time: 07:45:29
(UTC+02:00)

Ariane H10-3 - Visible Passes

Search period start: 27 May 2015 00:00
Search period end: 06 June 2015 00:00
Orbit: 226 x 21033 km, 7.3° (Epoch: 25 May)

Date Brightness Start Highest point End Pass type
(mag) Time Alt. Az. Time Alt. Az. Time Alt. Az.
27 May 7.0 07:20:31 10° WSW 07:40:15 78° S 12:18:06 10° E visible
30 May 5.4 19:59:04 10° W 20:38:20 70° N 20:43:31 10° E visible
31 May 7.3 03:15:06 17° ESE 03:15:06 17° ESE 03:20:20 10° E visible
31 May 4.6 20:46:39 10° W 21:10:36 71° N 21:13:32 25° E visible
01 Jun 6.8 03:45:02 29° ESE 03:45:02 29° ESE 03:59:54 10° E visible
01 Jun 3.6 21:26:52 10° W 21:42:20 74° N 21:43:15 56° ENE visible
02 Jun 6.3 04:14:41 44° ESE 04:14:41 44° ESE 04:44:57 10° E visible
02 Jun 4.0 22:03:25 10° W 22:12:40 58° WNW 22:12:40 58° WNW visible
03 Jun 5.9 04:44:04 59° SSE 04:44:04 59° SSE 05:44:57 10° E visible
03 Jun 5.4 22:37:44 10° W 22:41:49 25° W 22:41:49 25° W visible
04 Jun 5.7 05:13:09 63° SSW 05:14:38 66° S 08:07:26 10° E visible
04 Jun 6.4 23:10:34 10° W 23:10:41 10° W 23:10:41 10° W visible
05 Jun 5.8 05:41:56 50° SW 05:46:32 70° S 09:44:14 10° E visible
